Tracking 35274 objects as of 11-Sep-2026
HD Live streaming from Space Station
objects crossing your sky now

STARLINK-3698

Track STARLINK-3698 now!
10-day predictions
STARLINK-3698 is classified as:


NORAD ID: 52108
Int'l Code: 2022-029W
Launch date: March 19, 2022
Source: United States (US)
Launch site: AIR FORCE EASTERN TEST RANGE (AFETR)
Your satellite tracking list
Your tracking list is empty




NASA's NSSDC Master Catalog

Two Line Element Set (TLE):
1 52108U 22029W   26254.18184023  .00000818  00000-0  36195-4 0  9992
2 52108  53.1598 313.2933 0001146  82.4505 277.6627 15.33547175248966
Source of the keplerian elements: AFSPC